Weather History for ESPA - March, 2013

Change the Weather History Date:

Saturday, March 9, 2013

  Actual Average Record
Temperature  
Mean Temperature 10 °F -  
Max Temperature 19 °F - - ()
Min Temperature 0 °F - - ()
Degree Days  
Heating Degree Days 56    
Moisture  
Dew Point 1 °F    
Average Humidity 66    
Maximum Humidity 85    
Minimum Humidity 40    
Precipitation  
Precipitation 0.00 in - - ()
Sea Level Pressure  
Sea Level Pressure 30.19 in    
Wind  
Wind Speed 8 mph ()    
Max Wind Speed 12 mph    
Max Gust Speed -    
Visibility 6.2 miles    
Events      
T = Trace of Precipitation, MM = Missing Value Source: Averaged Metar Reports

Daily Weather History Graph

Daily Weather History Graph

Search for Another Location

Airport or City:

Trip Planner

Search our weather history database for the weather conditions in past years. The results will help you decide how hot, cold, wet, or windy it might be!

Date:

Astronomy

Mar. 09, 2013 Rise Set
Actual Time 6:13 AM CET 5:12 PM CET
Civil Twilight 5:23 AM CET 6:02 PM CET
Nautical Twilight 4:24 AM CET 7:01 PM CET
Astronomical Twilight 3:21 AM CET 8:05 PM CET
Moon 5:14 AM CET (3/9) 2:13 PM CET (3/9)
Length of Visible Light 12h 39m
Length of Day
10h 59m
Waning Crescent, 7% of the Moon is Illuminated
Mar 9
Waning Crescent
Mar 11
New
Mar 19
First Quarter
Mar 27
Full
Apr 3
Last Quarter

Hourly Weather History & Observations

Time (CET) Temp. Windchill Dew Point Humidity Pressure Visibility Wind Dir Wind Speed Gust Speed Precip Events Conditions
12:00 AM 5 °F - -3 °F 57% 30.18 in 31 mi NW 6.7 mph - -  
12:20 AM 8.6 °F -6.3 °F -0.4 °F 67% 30.15 in 6.2 mi NNW 11.5 mph - N/A   Unknown
12:50 AM 5.0 °F -10.0 °F -2.2 °F 72% 30.15 in 6.2 mi NW 10.4 mph - N/A   Partly Cloudy
1:00 AM 5 °F - -2 °F 62% 30.18 in 31 mi NNW 8.9 mph - -  
1:20 AM 8.6 °F -4.7 °F -0.4 °F 67% 30.15 in 6.2 mi NNW 9.2 mph - N/A   Mostly Cloudy
1:50 AM 8.6 °F -4.7 °F -0.4 °F 67% 30.15 in 6.2 mi NNW 9.2 mph - N/A   Scattered Clouds
2:00 AM 7 °F - -1 °F 57% 30.18 in 31 mi NNW 6.7 mph - -  
2:20 AM 6.8 °F -6.9 °F -0.4 °F 72% 30.15 in 6.2 mi NNW 9.2 mph - N/A   Unknown
2:50 AM 6.8 °F -6.9 °F -0.4 °F 72% 30.18 in 6.2 mi NNW 9.2 mph - N/A   Partly Cloudy
3:00 AM 7 °F - -0 °F 60% 30.19 in 28 mi NNW 6.7 mph - -  
3:20 AM 8.6 °F -4.7 °F 1.4 °F 73% 30.18 in 6.2 mi NNW 9.2 mph - N/A   Overcast
3:50 AM 8.6 °F -4.7 °F 1.4 °F 73% 30.18 in 6.2 mi NNW 9.2 mph - N/A   Ice Crystals
4:20 AM 6.8 °F -6.9 °F 1.4 °F 79% 30.18 in 6.2 mi NNW 9.2 mph - N/A   Mostly Cloudy
4:50 AM 6.8 °F -6.9 °F -0.4 °F 72% 30.18 in 6.2 mi NNW 9.2 mph - N/A   Unknown
5:00 AM 4 °F - -1 °F 68% 30.21 in 31 mi North 8.9 mph - -   Clear
5:20 AM 5.0 °F -10.0 °F -0.4 °F 78% 30.18 in 6.2 mi NNW 10.4 mph - N/A   Unknown
5:50 AM 3.2 °F -12.2 °F -2.2 °F 78% 30.21 in - NNW 10.4 mph - N/A   Clear
6:00 AM 1 °F - -4 °F 71% 30.22 in 31 mi NNW 6.7 mph - -   Clear
6:20 AM 3.2 °F -12.2 °F -2.2 °F 78% 30.21 in - NNW 10.4 mph - N/A   Clear
6:50 AM 3.2 °F -11.3 °F -2.2 °F 78% 30.21 in - NNW 9.2 mph - N/A   Clear
7:00 AM 0 °F - -4 °F 73% 30.23 in 28 mi NNW 8.9 mph - -  
7:20 AM 1.4 °F -13.5 °F -2.2 °F 85% 30.21 in - NW 9.2 mph - N/A   Clear
7:50 AM 5.0 °F -10.0 °F -0.4 °F 78% 30.21 in - NNW 10.4 mph - N/A   Clear
8:00 AM 5 °F - -0 °F 68% 30.24 in 28 mi NNW 8.9 mph - -  
8:20 AM 6.8 °F -8.6 °F -0.4 °F 72% 30.21 in - NNW 11.5 mph - N/A   Clear
8:50 AM 5.0 °F -10.0 °F -0.4 °F 78% 30.24 in - NW 10.4 mph - N/A   Clear
9:00 AM 5 °F - -1 °F 67% 30.25 in 22 mi NW 8.9 mph - -  
9:20 AM 6.8 °F -6.9 °F 1.4 °F 79% 30.24 in - WNW 9.2 mph - N/A   Clear
9:50 AM 8.6 °F -5.5 °F 1.4 °F 73% 30.24 in - WNW 10.4 mph - N/A   Clear
10:20 AM 10.4 °F -4.1 °F 3.2 °F 73% 30.24 in - WNW 11.5 mph - N/A   Clear
10:50 AM 12.2 °F -0.2 °F 5.0 °F 73% 30.24 in - NW 9.2 mph - N/A   Clear
11:00 AM 11 °F - 4 °F 61% 30.26 in 25 mi NW 8.9 mph - -  
11:20 AM 12.2 °F -1.0 °F 5.0 °F 73% 30.24 in - NW 10.4 mph - N/A   Clear
11:50 AM 15.8 °F 3.4 °F 6.8 °F 68% 30.24 in - NNW 10.4 mph - N/A   Clear
12:00 PM 14 °F - 5 °F 56% 30.26 in 28 mi NW 8.9 mph - -  
12:20 PM 15.8 °F 3.4 °F 6.8 °F 68% 30.24 in - WNW 10.4 mph - N/A   Clear
12:50 PM 15.8 °F 2.7 °F 6.8 °F 68% 30.24 in - WNW 11.5 mph - N/A   Clear
1:00 PM 16 °F - 6 °F 51% 30.25 in 25 mi NW 11.2 mph - -  
1:20 PM 17.6 °F 5.7 °F 6.8 °F 63% 30.21 in - NW 10.4 mph - N/A   Clear
1:50 PM 17.6 °F 5.7 °F 6.8 °F 63% 30.21 in - NW 10.4 mph - N/A   Clear
2:00 PM 17 °F - 6 °F 47% 30.24 in 28 mi NW 8.9 mph - -  
2:20 PM 17.6 °F 5.7 °F 6.8 °F 63% 30.21 in - NW 10.4 mph - N/A   Clear
2:50 PM 17.6 °F 5.7 °F 5.0 °F 58% 30.21 in 6.2 mi NW 10.4 mph - N/A   Unknown
3:00 PM 17 °F - 4 °F 43% 30.23 in 28 mi NW 8.9 mph - -  
3:20 PM 17.6 °F 6.4 °F 5.0 °F 58% 30.21 in - NW 9.2 mph - N/A   Clear
3:50 PM 15.8 °F 6.1 °F 3.2 °F 58% 30.21 in - NW 6.9 mph - N/A   Clear
4:20 PM 19.4 °F 14.3 °F 3.2 °F 49% 30.18 in - WNW 3.5 mph - N/A   Clear
4:50 PM 14.0 °F 6.5 °F 1.4 °F 57% 30.18 in - WNW 4.6 mph - N/A   Clear
5:00 PM 13 °F - -0 °F 40% 30.21 in 28 mi WNW 2.2 mph - -  
5:20 PM 12.2 °F - 1.4 °F 62% 30.18 in - WNW 2.3 mph - N/A   Clear
5:50 PM 8.6 °F - -0.4 °F 67% 30.18 in 6.2 mi West 2.3 mph - N/A   Unknown
6:00 PM 7 °F - -1 °F 56% 30.20 in 31 mi Calm Calm - -  
6:20 PM 6.8 °F -0.1 °F -2.2 °F 67% 30.18 in 6.2 mi West 3.5 mph - N/A   Unknown
6:50 PM 5.0 °F -2.1 °F -0.4 °F 78% 30.18 in - WSW 3.5 mph - N/A   Clear
7:00 PM 4 °F - -3 °F 61% 30.19 in 31 mi SSW 2.2 mph - -  
7:20 PM 3.2 °F -7.8 °F -2.2 °F 78% 30.15 in 6.2 mi WSW 5.8 mph - N/A   Unknown
7:50 PM 5.0 °F -2.1 °F -2.2 °F 72% 30.15 in - West 3.5 mph - N/A   Clear
8:00 PM 7 °F - -0 °F 61% 30.18 in 28 mi Calm Calm - -  
8:20 PM 5.0 °F -6.9 °F -0.4 °F 78% 30.15 in 6.2 mi WNW 6.9 mph - N/A   Unknown
8:50 PM 8.6 °F -2.6 °F -0.4 °F 67% 30.15 in 6.2 mi WNW 6.9 mph - N/A   Unknown
9:00 PM 11 °F - 1 °F 50% 30.17 in 31 mi WNW 4.5 mph - -  
9:20 PM 12.2 °F 0.7 °F 1.4 °F 62% 30.15 in 6.2 mi West 8.1 mph - N/A   Unknown
9:50 PM 12.2 °F -0.2 °F -0.4 °F 57% 30.15 in 6.2 mi West 9.2 mph - N/A   Unknown
10:20 PM 10.4 °F -1.5 °F -0.4 °F 62% 30.12 in 6.2 mi West 8.1 mph - N/A   Unknown
10:50 PM 8.6 °F -2.6 °F -2.2 °F 62% 30.12 in 6.2 mi West 6.9 mph - N/A   Unknown
11:00 PM 9 °F - -2 °F 46% 30.14 in 31 mi WNW 4.5 mph - -  
11:20 PM 8.6 °F -2.6 °F -2.2 °F 62% 30.12 in 6.2 mi West 6.9 mph - N/A   Unknown
11:50 PM 5.0 °F -6.9 °F -4.0 °F 66% 30.12 in 6.2 mi West 6.9 mph - N/A   Unknown